Simultaneous Nadir Overpasses (SNOs) Predictions

Prediction of SNOs between METOP-B and NOAA-19 Satellite Orbit:

Table of predicted SNOs for the next 14.0 days since TLE Epoch: 5/31/2013
Index Date (METOP-B) Time (METOP-B) Lat,Lon (METOP-B) SZA (METOP-B ) Date (NOAA-19) Time (NOAA-19) Lat,Lon (NOAA-19) SZA (NOAA-19 ) Distance(km) Time Diff (sec)
1 06/03/2013 23:39:24 73.44, 178.88 51.02 06/03/2013 23:38:11 73.45, 178.41 51.06 15.09 73
2 06/04/2013 00:30:07 -73.34, -14.01 129.07 06/04/2013 00:29:07 -73.33, -14.07 129.07 2.00 60
3 06/04/2013 01:20:48 73.32, 153.27 50.91 06/04/2013 01:20:13 73.32, 153.18 50.92 2.98 35
4 06/04/2013 02:11:30 -73.27, -39.50 129.15 06/04/2013 02:11:10 -73.25, -39.41 129.16 3.36 20
5 06/04/2013 03:02:11 73.25, 127.78 50.83 06/04/2013 03:02:16 73.24, 127.84 50.83 1.91 5
6 06/04/2013 03:52:52 -73.25, -64.89 129.17 06/04/2013 03:53:14 -73.23, -64.87 129.20 2.39 22
7 06/04/2013 04:43:33 73.23, 102.39 50.81 06/04/2013 04:44:20 73.22, 102.38 50.79 0.99 47
8 06/04/2013 05:34:15 -73.18, -90.38 129.25 06/04/2013 05:35:18 -73.20, -90.32 129.23 3.12 63
9 06/04/2013 06:25:06 72.65, 75.83 50.27 06/04/2013 06:26:14 72.69, 78.01 50.22 72.52 68
10 06/14/2013 00:23:02 -73.68, -11.48 129.57 06/14/2013 00:21:51 -73.72, -13.07 129.46 49.73 71
11 06/14/2013 01:13:49 73.35, 155.10 50.13 06/14/2013 01:12:47 73.35, 155.03 50.14 2.28 62
12 06/14/2013 02:04:31 -73.31, -37.66 129.92 06/14/2013 02:03:47 -73.30, -37.60 129.92 2.36 44
13 06/14/2013 02:55:12 73.28, 129.60 50.06 06/14/2013 02:54:50 73.28, 129.68 50.06 2.61 22
14 06/14/2013 03:45:53 -73.29, -63.05 129.94 06/14/2013 03:45:51 -73.27, -63.06 129.95 2.02 2
15 06/14/2013 04:36:34 73.26, 104.21 50.04 06/14/2013 04:36:54 73.25, 104.22 50.03 0.81 20
16 06/14/2013 05:27:16 -73.22, -88.55 130.00 06/14/2013 05:27:55 -73.25, -88.52 129.99 3.02 39
17 06/14/2013 06:17:56 73.24, 78.83 50.02 06/14/2013 06:18:58 73.23, 78.76 50.00 2.54 62
18 06/14/2013 07:08:43 -72.95,-114.47 130.25 06/14/2013 07:09:55 -73.02,-113.53 130.23 31.62 72




NCC Satellite Simultaneous Nadir Overpasses (SNOs) Prediction Service
